Time,TemperatureF,DewpointF,PressureIn,WindDirection,WindDirectionDegrees,WindSpeedMPH,WindSpeedGustMPH,Humidity,HourlyPrecipIn,Conditions,Clouds,dailyrainin,SoftwareType,DateUTC
2014-04-19 00:13:00,50.0,41.0,30.27,ESE,114,0.0,4.0,70,0.00,,,0.00,,2014-04-19 04:13:00,
2014-04-19 00:24:00,50.0,41.0,30.26,ESE,114,0.0,2.0,71,0.00,,,0.00,,2014-04-19 04:24:00,
2014-04-19 00:43:00,50.0,41.0,30.26,ESE,114,1.0,4.0,71,0.00,,,0.00,,2014-04-19 04:43:00,
2014-04-19 00:54:00,49.0,41.0,30.26,ESE,113,1.0,2.0,73,0.00,,,0.00,,2014-04-19 04:54:00,
2014-04-19 01:12:00,49.0,41.0,30.25,ESE,112,2.0,4.0,74,0.00,,,0.00,,2014-04-19 05:12:00,
2014-04-19 01:22:00,49.0,41.0,30.25,ESE,113,0.0,0.0,75,0.00,,,0.00,,2014-04-19 05:22:00,
2014-04-19 01:43:00,49.0,41.0,30.24,ESE,113,1.0,2.0,75,0.00,,,0.00,,2014-04-19 05:43:00,
2014-04-19 01:52:00,49.0,42.0,30.24,ESE,113,1.0,4.0,77,0.00,,,0.00,,2014-04-19 05:52:00,
2014-04-19 02:12:00,49.0,42.0,30.23,ESE,113,1.0,2.0,77,0.00,,,0.00,,2014-04-19 06:12:00,
2014-04-19 02:22:00,48.0,42.0,30.23,ESE,117,1.0,4.0,79,0.00,,,0.00,,2014-04-19 06:22:00,
2014-04-19 02:42:00,48.0,42.0,30.22,ESE,117,0.0,4.0,79,0.00,,,0.00,,2014-04-19 06:42:00,
2014-04-19 02:52:00,48.0,42.0,30.22,ESE,118,1.0,2.0,79,0.00,,,0.00,,2014-04-19 06:52:00,
2014-04-19 03:12:00,48.0,42.0,30.22,ESE,119,0.0,2.0,79,0.00,,,0.00,,2014-04-19 07:12:00,
2014-04-19 03:22:00,48.0,42.0,30.22,ESE,119,0.0,2.0,79,0.00,,,0.00,,2014-04-19 07:22:00,
2014-04-19 03:53:00,49.0,42.0,30.21,East,92,0.0,1.0,78,0.00,,,0.00,,2014-04-19 07:53:00,
2014-04-19 04:22:00,49.0,43.0,30.21,NE,50,1.0,3.0,80,0.00,,,0.00,,2014-04-19 08:22:00,
2014-04-19 04:52:00,48.0,43.0,30.21,NNE,27,0.0,1.0,83,0.00,,,0.00,,2014-04-19 08:52:00,
2014-04-19 05:22:00,48.0,42.0,30.20,NNE,28,1.0,2.0,81,0.00,,,0.00,,2014-04-19 09:22:00,
2014-04-19 05:54:00,48.0,42.0,30.22,NNE,28,0.0,1.0,81,0.00,,,0.00,,2014-04-19 09:54:00,
2014-04-19 06:23:00,48.0,42.0,30.22,NNE,28,0.0,1.0,80,0.00,,,0.00,,2014-04-19 10:23:00,
2014-04-19 06:54:00,48.0,42.0,30.22,NE,36,0.0,2.0,80,0.00,,,0.00,,2014-04-19 10:54:00,
2014-04-19 07:12:00,48.0,42.0,30.22,NE,35,0.0,2.0,80,0.00,,,0.00,,2014-04-19 11:12:00,
2014-04-19 07:22:00,48.0,42.0,30.23,NNW,329,2.0,4.0,81,0.00,,,0.00,,2014-04-19 11:22:00,
2014-04-19 07:52:00,48.0,41.0,30.23,West,259,0.0,4.0,78,0.00,,,0.00,,2014-04-19 11:52:00,
2014-04-19 08:12:00,49.0,42.0,30.23,West,259,0.0,1.0,77,0.00,,,0.00,,2014-04-19 12:12:00,
2014-04-19 08:22:00,49.0,42.0,30.23,WSW,258,1.0,3.0,78,0.00,,,0.00,,2014-04-19 12:22:00,
2014-04-19 08:42:00,49.0,42.0,30.23,WNW,294,0.0,3.0,76,0.00,,,0.00,,2014-04-19 12:42:00,
2014-04-19 08:52:00,50.0,42.0,30.24,WNW,294,0.0,2.0,75,0.00,,,0.00,,2014-04-19 12:52:00,
2014-04-19 09:12:00,51.0,42.0,30.23,WNW,295,0.0,2.0,72,0.00,,,0.00,,2014-04-19 13:12:00,
2014-04-19 09:22:00,52.0,42.0,30.23,WNW,296,0.0,2.0,69,0.00,,,0.00,,2014-04-19 13:22:00,
2014-04-19 09:42:00,53.0,42.0,30.24,WNW,296,0.0,2.0,66,0.00,,,0.00,,2014-04-19 13:42:00,
2014-04-19 09:52:00,53.0,42.0,30.24,WNW,300,1.0,3.0,66,0.00,,,0.00,,2014-04-19 13:52:00,
2014-04-19 10:12:00,55.0,43.0,30.24,WNW,299,1.0,3.0,64,0.00,,,0.00,,2014-04-19 14:12:00,
2014-04-19 10:22:00,56.0,44.0,30.24,NW,305,0.0,4.0,63,0.00,,,0.00,,2014-04-19 14:22:00,
2014-04-19 10:42:00,57.0,44.0,30.23,WNW,286,0.0,4.0,61,0.00,,,0.00,,2014-04-19 14:42:00,
2014-04-19 10:52:00,58.0,42.0,30.23,NNW,336,1.0,7.0,56,0.00,,,0.00,,2014-04-19 14:52:00,
2014-04-19 11:22:00,59.0,42.0,30.23,North,349,3.0,6.0,53,0.00,,,0.00,,2014-04-19 15:22:00,
2014-04-19 11:43:00,61.0,43.0,30.22,North,360,1.0,3.0,51,0.00,,,0.00,,2014-04-19 15:43:00,
2014-04-19 11:54:00,61.0,43.0,30.22,NNW,333,2.0,5.0,51,0.00,,,0.00,,2014-04-19 15:54:00,
2014-04-19 12:13:00,61.0,43.0,30.21,NE,55,0.0,4.0,51,0.00,,,0.00,,2014-04-19 16:13:00,
2014-04-19 12:23:00,60.0,42.0,30.21,North,355,1.0,6.0,51,0.00,,,0.00,,2014-04-19 16:23:00,
2014-04-19 12:43:00,61.0,43.0,30.22,NNW,335,3.0,8.0,52,0.00,,,0.00,,2014-04-19 16:43:00,
2014-04-19 12:53:00,62.0,43.0,30.22,North,355,5.0,8.0,50,0.00,,,0.00,,2014-04-19 16:53:00,
2014-04-19 13:12:00,62.0,42.0,30.22,North,360,3.0,5.0,48,0.00,,,0.00,,2014-04-19 17:12:00,
2014-04-19 13:22:00,63.0,42.0,30.22,North,355,1.0,4.0,46,0.00,,,0.00,,2014-04-19 17:22:00,
2014-04-19 13:43:00,64.0,42.0,30.24,NE,47,1.0,4.0,45,0.00,,,0.00,,2014-04-19 17:43:00,
2014-04-19 13:52:00,64.0,42.0,30.24,ESE,103,2.0,4.0,44,0.00,,,0.00,,2014-04-19 17:52:00,
2014-04-19 14:12:00,63.0,42.0,30.24,SE,126,3.0,6.0,46,0.00,,,0.00,,2014-04-19 18:12:00,
2014-04-19 14:22:00,63.0,42.0,30.24,SSE,153,3.0,8.0,46,0.00,,,0.00,,2014-04-19 18:22:00,
2014-04-19 14:42:00,62.0,41.0,30.24,SSE,147,4.0,8.0,46,0.00,,,0.00,,2014-04-19 18:42:00,
2014-04-19 14:52:00,63.0,42.0,30.23,East,84,1.0,5.0,46,0.00,,,0.00,,2014-04-19 18:52:00,
2014-04-19 15:12:00,63.0,41.0,30.23,East,99,5.0,7.0,45,0.00,,,0.00,,2014-04-19 19:12:00,
2014-04-19 15:22:00,65.0,41.0,30.23,SE,140,4.0,7.0,42,0.00,,,0.00,,2014-04-19 19:22:00,
2014-04-19 15:42:00,64.0,41.0,30.23,East,91,4.0,8.0,43,0.00,,,0.00,,2014-04-19 19:42:00,
2014-04-19 15:52:00,64.0,41.0,30.22,SSE,168,4.0,11.0,43,0.00,,,0.00,,2014-04-19 19:52:00,
2014-04-19 16:12:00,64.0,42.0,30.22,ESE,119,4.0,8.0,44,0.00,,,0.00,,2014-04-19 20:12:00,
2014-04-19 16:22:00,63.0,41.0,30.23,SE,141,5.0,11.0,44,0.00,,,0.00,,2014-04-19 20:22:00,
2014-04-19 16:42:00,63.0,41.0,30.23,ESE,114,3.0,10.0,44,0.00,,,0.00,,2014-04-19 20:42:00,
2014-04-19 16:52:00,63.0,41.0,30.23,SE,127,3.0,8.0,45,0.00,,,0.00,,2014-04-19 20:52:00,
2014-04-19 17:12:00,63.0,41.0,30.22,SE,126,6.0,12.0,45,0.00,,,0.00,,2014-04-19 21:12:00,
2014-04-19 17:22:00,63.0,42.0,30.22,ESE,123,5.0,9.0,46,0.00,,,0.00,,2014-04-19 21:22:00,
2014-04-19 17:43:00,63.0,42.0,30.22,ESE,110,6.0,12.0,46,0.00,,,0.00,,2014-04-19 21:43:00,
2014-04-19 17:54:00,63.0,42.0,30.22,ESE,116,6.0,13.0,46,0.00,,,0.00,,2014-04-19 21:54:00,
2014-04-19 18:13:00,63.0,42.0,30.22,ESE,120,5.0,9.0,46,0.00,,,0.00,,2014-04-19 22:13:00,
2014-04-19 18:23:00,63.0,42.0,30.22,East,98,4.0,11.0,46,0.00,,,0.00,,2014-04-19 22:23:00,
2014-04-19 18:43:00,63.0,42.0,30.22,East,96,3.0,8.0,47,0.00,,,0.00,,2014-04-19 22:43:00,
2014-04-19 18:53:00,63.0,43.0,30.23,SE,134,1.0,6.0,48,0.00,,,0.00,,2014-04-19 22:53:00,
2014-04-19 19:12:00,62.0,42.0,30.23,East,85,5.0,7.0,48,0.00,,,0.00,,2014-04-19 23:12:00,
2014-04-19 19:22:00,62.0,43.0,30.22,ESE,113,1.0,6.0,49,0.00,,,0.00,,2014-04-19 23:22:00,
2014-04-19 19:43:00,62.0,43.0,30.22,ESE,119,2.0,7.0,49,0.00,,,0.00,,2014-04-19 23:43:00,
2014-04-19 19:53:00,61.0,42.0,30.22,ESE,123,2.0,5.0,50,0.00,,,0.00,,2014-04-19 23:53:00,
2014-04-19 20:12:00,61.0,43.0,30.23,SE,142,2.0,7.0,51,0.00,,,0.00,,2014-04-20 00:12:00,